VY2EK-13 Weather Reports


time (UTC)temp
F
wind
direction
speed
knots
gust
knots
rain 1hr
in
rain 24hr
in
rain mn
in
humidity
%
barometer
mb
20260508100512 44 82 1.7 2.6 0.00 0.00 0.00 99 1003.0
20260508100011 43 67 2.6 2.6 0.00 0.00 0.00 99 1003.0
20260508095511 43 70 1.7 4.3 0.00 0.00 0.00 99 1003.0
20260508095012 43 56 3.5 3.5 0.00 0.00 0.00 99 1003.0
20260508094513 43 55 0.0 1.7 0.00 0.00 0.00 99 1003.0
20260508094011 43 31 0.9 1.7 0.00 0.00 0.00 99 1003.0
20260508093511 43 59 3.5 4.3 0.00 0.00 0.00 99 1002.0
20260508093012 42 60 2.6 4.3 0.00 0.00 0.00 99 1002.0
20260508092511 42 43 1.7 1.7 0.00 0.00 0.00 98 1003.0
20260508092011 42 55 2.6 4.3 0.00 0.00 0.00 98 1002.0
20260508091512 42 61 4.3 5.2 0.00 0.00 0.00 98 1002.0
20260508091011 42 66 3.5 5.2 0.00 0.00 0.00 99 1002.0
20260508090511 42 62 4.3 5.2 0.00 0.00 0.00 99 1002.0
20260508090014 42 49 4.3 5.2 0.00 0.00 0.00 99 1002.0
20260508085513 42 71 4.3 4.3 0.00 0.00 0.00 99 1002.0
20260508085012 42 57 3.5 4.3 0.00 0.00 0.00 99 1003.0
20260508084512 42 63 3.5 5.2 0.00 0.00 0.00 99 1002.0
20260508084012 42 66 3.5 4.3 0.00 0.00 0.00 99 1002.0
20260508083513 42 62 4.3 5.2 0.00 0.00 0.00 99 1003.0
20260508083012 42 57 4.3 5.2 0.00 0.00 0.00 99 1002.0
20260508082513 42 58 4.3 6.1 0.00 0.00 0.00 98 1003.0
20260508082012 42 66 4.3 5.2 0.00 0.00 0.00 99 1002.0
20260508081512 42 32 3.5 6.1 0.00 0.00 0.00 99 1002.0
20260508081013 42 14 5.2 5.2 0.00 0.00 0.00 99 1002.0
20260508080512 42 42 3.5 6.1 0.00 0.00 0.00 99 1002.0
20260508080012 41 39 5.2 7.0 0.00 0.00 0.00 99 1002.0
20260508075512 40 53 3.5 5.2 0.00 0.00 0.00 98 1002.0
20260508075011 40 62 3.5 3.5 0.00 0.00 0.00 98 1002.0
20260508074512 40 66 2.6 3.5 0.00 0.00 0.00 98 1003.0
20260508074012 40 86 2.6 2.6 0.00 0.00 0.00 97 1002.0
20260508073511 40 61 1.7 3.5 0.00 0.00 0.00 98 1003.0
20260508073011 40 60 1.7 2.6 0.00 0.00 0.00 98 1002.0
20260508072511 41 94 1.7 2.6 0.00 0.00 0.00 98 1002.0
20260508072011 41 57 0.0 1.7 0.00 0.00 0.00 98 1003.0
20260508071511 41 72 1.7 1.7 0.00 0.00 0.00 98 1002.0
20260508071012 41 85 1.7 1.7 0.00 0.00 0.00 98 1002.0
20260508070511 41 58 3.5 4.3 0.00 0.00 0.00 98 1002.0
20260508070013 41 93 1.7 2.6 0.00 0.00 0.00 98 1002.0
20260508065511 41 80 4.3 5.2 0.00 0.00 0.00 97 1002.0
20260508065011 41 65 4.3 5.2 0.00 0.00 0.00 97 1002.0
20260508064511 41 62 4.3 5.2 0.00 0.00 0.00 97 1002.0
20260508064012 42 65 3.5 5.2 0.00 0.00 0.00 97 1002.0
20260508063511 42 67 4.3 5.2 0.00 0.00 0.00 97 1002.0
20260508063015 42 63 4.3 5.2 0.00 0.00 0.00 98 1002.0
20260508062512 42 56 4.3 6.1 0.00 0.00 0.00 98 1002.0
20260508062011 42 61 6.1 7.0 0.00 0.00 0.00 98 1003.0
20260508061512 42 52 5.2 5.2 0.00 0.00 0.00 98 1003.0
20260508061011 42 59 4.3 5.2 0.00 0.00 0.00 98 1002.0
20260508060511 42 61 2.6 3.5 0.00 0.00 0.00 98 1002.0
20260508060012 42 49 3.5 4.3 0.00 0.00 0.00 98 1003.0
20260508055511 42 63 1.7 2.6 0.00 0.00 0.00 98 1003.0
20260508055012 42 75 1.7 1.7 0.00 0.00 0.00 98 1003.0
20260508054511 42 67 0.9 1.7 0.00 0.00 0.00 98 1003.0
20260508054011 42 61 0.9 2.6 0.00 0.00 0.00 98 1003.0
20260508053511 42 70 1.7 2.6 0.00 0.00 0.00 97 1003.0
20260508053014 42 80 2.6 3.5 0.00 0.00 0.00 98 1003.0
20260508052512 42 63 1.7 3.5 0.00 0.00 0.00 98 1003.0
20260508052015 42 81 1.7 3.5 0.00 0.00 0.00 97 1003.0
20260508051511 42 80 1.7 2.6 0.00 0.00 0.00 97 1003.0
20260508051011 42 79 1.7 2.6 0.00 0.00 0.00 97 1003.0
20260508050511 42 135 0.0 1.7 0.00 0.00 0.00 97 1003.0
20260508050011 42 133 2.6 4.3 0.00 0.00 0.00 97 1003.0
20260508045511 42 87 2.6 3.5 0.00 0.00 0.00 97 1003.0
20260508045011 42 77 2.6 2.6 0.00 0.00 0.00 97 1003.0
20260508044512 42 63 3.5 4.3 0.00 0.00 0.00 97 1003.0
20260508044011 42 67 3.5 5.2 0.00 0.00 0.00 97 1002.0
20260508043511 42 65 2.6 4.3 0.00 0.00 0.00 97 1003.0
20260508043012 42 87 2.6 3.5 0.00 0.00 0.00 97 1003.0
20260508042511 43 64 3.5 4.3 0.00 0.00 0.00 97 1003.0
20260508042012 42 92 1.7 2.6 0.00 0.00 0.00 97 1003.0
20260508041512 42 86 1.7 2.6 0.00 0.00 0.00 97 1002.0
20260508041011 42 68 2.6 3.5 0.00 0.00 0.00 96 1003.0
20260508040512 43 49 2.6 3.5 0.00 0.00 0.00 97 1003.0
20260508040011 43 12 4.3 4.3 0.00 0.00 0.00 97 1003.0
20260508035512 43 6 0.9 2.6 0.00 0.00 0.00 97 1003.0
20260508035011 44 76 1.7 2.6 0.00 0.00 0.00 97 1003.0
20260508034511 44 86 2.6 3.5 0.00 0.00 0.00 97 1003.0
20260508034012 44 113 1.7 4.3 0.00 0.00 0.00 96 1003.0
20260508033512 44 113 2.6 4.3 0.00 0.00 0.00 96 1003.0
20260508033011 44 87 2.6 3.5 0.00 0.00 0.00 97 1003.0
20260508032512 44 96 2.6 3.5 0.00 0.00 0.00 97 1003.0
20260508031600 44 129 2.6 5.2 0.00 0.00 0.00 97 1003.0
20260508031012 44 127 2.6 4.3 0.00 0.00 0.00 97 1003.0
20260508030512 44 104 2.6 3.5 0.00 0.00 0.00 96 1003.0
20260508030012 44 94 1.7 3.5 0.00 0.00 0.00 96 1003.0
20260508025513 45 73 1.7 3.5 0.00 0.00 0.23 96 1003.0
20260508025013 45 68 3.5 3.5 0.00 0.00 0.23 96 1003.0
20260508024512 45 89 1.7 4.3 0.00 0.00 0.23 96 1003.0
20260508024011 45 118 2.6 4.3 0.00 0.00 0.23 96 1003.0
20260508023512 45 96 2.6 3.5 0.00 0.00 0.23 96 1003.0
20260508023012 45 135 2.6 4.3 0.00 0.00 0.23 95 1003.0
20260508022511 46 76 1.7 3.5 0.00 0.00 0.23 95 1003.0
20260508022013 46 73 1.7 2.6 0.00 0.00 0.23 96 1003.0
20260508021512 46 89 1.7 2.6 0.00 0.00 0.23 95 1003.0
20260508021012 46 77 1.7 2.6 0.00 0.00 0.23 95 1003.0
20260508020513 46 82 1.7 2.6 0.00 0.00 0.23 95 1003.0
20260508020014 46 83 1.7 2.6 0.00 0.00 0.23 95 1003.0
20260508015511 45 89 2.6 2.6 0.00 0.00 0.23 94 1003.0
20260508015011 45 78 1.7 2.6 0.00 0.00 0.23 93 1003.0
20260508014512 45 95 1.7 2.6 0.00 0.00 0.23 94 1003.0
20260508014013 44 76 1.7 2.6 0.00 0.00 0.23 93 1003.0
20260508013511 44 83 2.6 2.6 0.00 0.00 0.23 93 1003.0
20260508013011 45 80 2.6 2.6 0.00 0.00 0.23 92 1003.0
20260508012512 45 83 2.6 2.6 0.00 0.00 0.23 92 1003.0
20260508012011 45 75 2.6 2.6 0.00 0.00 0.23 92 1003.0
20260508011511 45 80 1.7 2.6 0.00 0.00 0.23 92 1003.0
20260508011011 45 85 2.6 4.3 0.00 0.00 0.23 91 1003.0
20260508010512 45 77 2.6 3.5 0.00 0.00 0.23 92 1003.0
20260508010013 45 66 2.6 2.6 0.00 0.00 0.23 92 1003.0
20260508005511 44 81 1.7 3.5 0.00 0.00 0.23 90 1003.0
20260508005012 45 89 2.6 2.6 0.00 0.00 0.23 90 1003.0
20260508004513 45 68 3.5 4.3 0.00 0.00 0.23 90 1003.0
20260508004011 46 82 2.6 2.6 0.00 0.00 0.23 90 1003.0
20260508003512 46 97 1.7 2.6 0.00 0.00 0.23 89 1003.0
20260508003011 46 92 1.7 2.6 0.00 0.00 0.23 89 1003.0
20260508002511 46 75 1.7 2.6 0.00 0.00 0.23 88 1003.0
20260508002011 47 57 1.7 2.6 0.00 0.00 0.23 87 1003.0
20260508001511 48 75 2.6 2.6 0.00 0.00 0.23 87 1003.0
20260508001011 48 76 2.6 2.6 0.00 0.00 0.23 86 1003.0
20260508000512 49 67 3.5 4.3 0.00 0.00 0.23 87 1003.0
20260508000011 49 59 4.3 5.2 0.00 0.00 0.23 85 1002.0
20260507235512 49 58 2.6 3.5 0.00 0.00 0.23 84 1002.0
20260507235012 50 66 3.5 4.3 0.00 0.00 0.23 84 1002.0
20260507234515 50 64 3.5 3.5 0.00 0.00 0.23 83 1002.0
20260507234011 51 59 2.6 2.6 0.00 0.00 0.23 83 1002.0
20260507233511 52 66 4.3 5.2 0.00 0.00 0.23 82 1002.0
20260507233012 52 68 3.5 4.3 0.00 0.00 0.23 82 1002.0
20260507232514 53 70 5.2 6.1 0.00 0.00 0.23 82 1002.0
20260507232011 53 67 5.2 6.1 0.00 0.00 0.23 82 1002.0
20260507231511 54 56 3.5 4.3 0.00 0.00 0.23 83 1002.0
20260507231013 53 63 2.6 2.6 0.00 0.00 0.23 83 1002.0
20260507230511 53 66 3.5 3.5 0.00 0.00 0.23 83 1002.0
20260507230012 53 69 2.6 3.5 0.00 0.00 0.23 84 1002.0
20260507225512 53 60 2.6 4.3 0.00 0.00 0.23 84 1002.0
20260507225011 53 66 3.5 3.5 0.00 0.00 0.23 84 1002.0
20260507224511 52 79 2.6 4.3 0.00 0.00 0.23 84 1002.0
20260507224011 52 67 2.6 3.5 0.00 0.00 0.23 84 1002.0
20260507223513 53 72 2.6 3.5 0.00 0.00 0.23 84 1002.0
20260507223012 53 83 2.6 4.3 0.00 0.00 0.23 83 1002.0
20260507222511 53 59 6.1 6.1 0.00 0.00 0.23 83 1002.0
20260507222015 53 67 4.3 6.1 0.00 0.00 0.23 83 1002.0
20260507221512 53 69 6.1 6.1 0.00 0.00 0.23 83 1002.0
20260507221011 52 77 5.2 6.1 0.00 0.00 0.23 83 1002.0
20260507220512 53 75 7.8 8.7 0.00 0.00 0.23 82 1002.0
20260507220011 53 66 7.0 8.7 0.00 0.00 0.23 81 1002.0
20260507215514 54 71 6.1 8.7 0.00 0.00 0.23 80 1002.0
20260507215011 55 74 5.2 7.8 0.00 0.00 0.23 81 1002.0
20260507214511 55 71 2.6 7.0 0.00 0.00 0.23 81 1002.0
20260507214011 56 77 1.7 1.7 0.00 0.00 0.23 80 1002.0
20260507213512 56 57 0.9 2.6 0.00 0.00 0.23 79 1002.0
20260507213012 56 53 0.0 1.7 0.00 0.00 0.23 81 1002.0
20260507212512 56 101 1.7 2.6 0.00 0.00 0.23 80 1002.0
20260507212012 56 55 0.0 1.7 0.00 0.00 0.23 80 1002.0
20260507211512 56 76 0.9 2.6 0.00 0.00 0.23 80 1002.0
20260507211012 56 111 1.7 2.6 0.00 0.00 0.23 81 1002.0
20260507210512 56 69 0.9 2.6 0.00 0.00 0.23 81 1002.0
20260507210011 56 39 0.0 4.3 0.00 0.00 0.23 81 1002.0
20260507205511 56 129 2.6 6.1 0.00 0.00 0.23 81 1002.0
20260507205011 57 135 4.3 4.3 0.00 0.00 0.23 80 1001.0
20260507204511 57 119 2.6 2.6 0.00 0.00 0.23 82 1002.0
20260507204011 57 141 4.3 7.0 0.00 0.00 0.23 81 1001.0
20260507203511 57 142 7.0 7.0 0.00 0.00 0.23 83 1002.0
20260507203013 56 86 3.5 7.0 0.00 0.00 0.23 82 1001.0
20260507202521 56 141 4.3 6.1 0.00 0.00 0.23 82 1001.0
20260507202012 56 133 4.3 5.2 0.00 0.00 0.23 82 1001.0
20260507201513 56 99 1.7 7.8 0.00 0.00 0.23 81 1001.0
20260507201011 56 173 1.7 3.5 0.00 0.00 0.23 80 1001.0
20260507200511 57 54 1.7 4.3 0.00 0.00 0.23 83 1001.0
20260507200016 57 118 0.9 2.6 0.00 0.00 0.23 82 1001.0
20260507195513 57 158 4.3 5.2 0.00 0.00 0.23 81 1001.0
20260507195011 57 134 2.6 5.2 0.00 0.00 0.23 80 1001.0
20260507194512 58 137 5.2 7.0 0.00 0.00 0.23 80 1001.0
20260507194012 59 175 2.6 3.5 0.00 0.00 0.23 79 1001.0
20260507193511 58 143 6.1 7.8 0.00 0.00 0.23 82 1001.0
20260507193011 59 152 4.3 7.0 0.00 0.00 0.23 82 1001.0
20260507192511 57 320 0.0 4.3 0.00 0.00 0.23 84 1001.0
20260507192012 57 122 1.7 5.2 0.00 0.00 0.23 86 1001.0
20260507191512 57 67 2.6 8.7 0.00 0.00 0.23 86 1001.0
20260507191012 56 179 2.6 5.2 0.00 0.00 0.23 86 1001.0
20260507190512 56 120 6.1 6.1 0.00 0.00 0.23 86 1001.0
20260507190012 56 173 2.6 4.3 0.00 0.00 0.23 88 1001.0
20260507185511 56 210 1.7 6.1 0.00 0.00 0.23 88 1001.0
20260507185013 56 125 1.7 5.2 0.00 0.00 0.23 88 1001.0
20260507184512 56 186 2.6 3.5 0.00 0.00 0.23 89 1001.0
20260507184013 56 225 3.5 4.3 0.00 0.00 0.23 88 1001.0
20260507183512 56 164 1.7 4.3 0.00 0.00 0.23 95 1001.0
20260507183011 55 143 0.0 4.3 0.00 0.00 0.23 97 1001.0
20260507182511 54 240 0.0 2.6 0.00 0.00 0.23 97 1001.0
20260507182011 53 184 1.7 3.5 0.00 0.00 0.23 98 1001.0
20260507181511 53 101 0.9 1.7 0.00 0.00 0.23 99 1001.0
20260507181011 52 140 2.6 3.5 0.00 0.00 0.23 99 1001.0
20260507180514 51 301 0.0 2.6 0.00 0.00 0.23 99 1001.0
20260507180012 50 211 0.0 1.7 0.00 0.00 0.23 99 1002.0
20260507175511 50 53 0.0 2.6 0.00 0.00 0.23 99 1001.0
20260507175011 50 91 1.7 2.6 0.00 0.00 0.23 99 1001.0
20260507174516 50 214 2.6 4.3 0.00 0.00 0.23 99 1002.0
20260507174012 50 100 0.0 1.7 0.00 0.00 0.23 99 1002.0
20260507173512 49 112 0.0 3.5 0.00 0.00 0.23 99 1002.0
20260507173012 49 307 1.7 4.3 0.00 0.00 0.23 99 1002.0
20260507172515 49 205 0.0 4.3 0.00 0.00 0.23 99 1002.0
20260507172013 49 167 1.7 2.6 0.00 0.00 0.23 99 1002.0
20260507171512 49 170 3.5 3.5 0.00 0.00 0.23 99 1001.0
20260507171011 49 132 2.6 4.3 0.02 0.00 0.23 98 1002.0
20260507170512 49 156 3.5 7.8 0.02 0.00 0.23 98 1002.0
20260507170012 49 118 0.0 6.1 0.00 0.00 0.23 98 1002.0
20260507165511 49 74 0.9 4.3 0.00 0.00 0.23 98 1002.0
20260507165011 49 39 1.7 4.3 0.00 0.00 0.23 98 1001.0
20260507164512 49 221 0.0 3.5 0.00 0.00 0.23 98 1002.0
20260507164011 49 296 0.0 4.3 0.00 0.00 0.23 98 1002.0
20260507163511 49 142 1.7 5.2 0.00 0.00 0.23 98 1002.0
20260507163012 50 257 3.5 3.5 0.02 0.00 0.23 98 1002.0
20260507162511 50 193 2.6 4.3 0.02 0.00 0.23 98 1002.0
20260507162011 50 69 0.0 5.2 0.00 0.00 0.22 99 1001.0
20260507161512 49 122 2.6 5.2 0.00 0.00 0.22 98 1001.0
20260507161012 49 153 4.3 7.0 0.00 0.00 0.22 98 1002.0
20260507160512 50 113 1.7 3.5 0.02 0.00 0.22 98 1003.0
20260507160012 50 165 1.7 5.2 0.05 0.00 0.22 98 1002.0
20260507155513 50 144 3.5 6.1 0.02 0.00 0.22 98 1003.0
20260507155017 50 225 2.6 6.1 0.02 0.00 0.22 98 1002.0
20260507154512 50 225 2.6 5.2 0.02 0.00 0.22 98 1002.0
20260507154012 50 137 4.3 7.8 0.02 0.00 0.21 98 1002.0
20260507153512 50 134 3.5 7.8 0.00 0.00 0.21 98 1002.0
20260507153012 50 188 1.7 6.1 0.02 0.00 0.21 98 1003.0
20260507152511 50 359 1.7 5.2 0.07 0.00 0.21 98 1003.0
20260507152012 50 113 1.7 7.8 0.07 0.00 0.21 98 1003.0
20260507151512 50 126 2.6 8.7 0.05 0.00 0.20 98 1003.0
20260507151013 51 230 5.2 6.1 0.02 0.00 0.19 98 1003.0
20260507150511 51 165 1.7 8.7 0.09 0.00 0.19 97 1003.0
20260507145544 51 187 6.1 9.6 0.17 0.00 0.17 97 1003.0
20260507145011 51 151 2.6 9.6 0.12 0.00 0.15 97 1003.0
20260507144512 51 273 1.7 8.7 0.12 0.00 0.14 97 1003.0
20260507144011 51 125 8.7 11.3 0.19 0.00 0.13 97 1003.0
20260507143518 51 92 4.3 15.6 0.17 0.00 0.12 97 1003.0
20260507143012 51 114 1.7 8.7 0.07 0.00 0.10 97 1003.0
20260507142512 52 168 9.6 13.0 0.07 0.00 0.09 97 1003.0
20260507142012 52 167 7.0 13.0 0.07 0.00 0.08 98 1002.0
20260507141511 51 155 7.0 9.6 0.05 0.00 0.08 98 1003.0
20260507141012 51 219 8.7 15.6 0.07 0.00 0.07 98 1003.0
20260507140511 52 186 5.2 10.4 0.05 0.00 0.07 98 1003.0
20260507140012 52 178 2.6 7.8 0.00 0.00 0.06 98 1003.0
20260507135512 52 192 6.1 11.3 0.00 0.00 0.06 98 1003.0
20260507135013 52 139 10.4 11.3 0.00 0.00 0.06 98 1003.0
20260507134513 52 161 7.0 13.9 0.00 0.00 0.06 98 1003.0
20260507134011 52 213 5.2 15.6 0.00 0.00 0.06 98 1003.0
20260507133512 52 147 10.4 14.8 0.00 0.00 0.06 98 1002.0
20260507133012 52 150 6.1 9.6 0.00 0.00 0.06 98 1003.0
20260507132512 52 201 6.1 12.2 0.02 0.00 0.06 98 1003.0
20260507132014 52 221 1.7 15.6 0.02 0.00 0.06 98 1003.0
20260507131512 52 220 5.2 12.2 0.00 0.00 0.06 98 1003.0
20260507131012 52 144 2.6 8.7 0.00 0.00 0.06 98 1003.0
20260507130513 52 239 8.7 9.6 0.00 0.00 0.06 98 1003.0
20260507130013 52 157 8.7 12.2 0.00 0.00 0.06 98 1003.0
20260507125511 52 173 5.2 16.5 0.00 0.00 0.06 98 1003.0
20260507125012 52 142 9.6 18.2 0.00 0.00 0.06 98 1003.0
20260507124511 52 155 7.0 12.2 0.00 0.00 0.06 98 1003.0
20260507124012 52 205 5.2 9.6 0.00 0.00 0.06 97 1003.0
20260507123512 52 177 7.8 13.0 0.00 0.00 0.06 97 1003.0
20260507123012 52 146 7.0 13.0 0.00 0.00 0.06 97 1003.0
20260507122512 52 186 6.1 14.8 0.00 0.00 0.06 97 1003.0
20260507122011 52 157 7.0 17.4 0.02 0.00 0.06 97 1003.0
20260507121040 52 227 11.3 19.1 0.02 0.00 0.05 97 1003.0
20260507120511 52 175 7.0 18.2 0.00 0.00 0.05 96 1003.0
20260507120011 52 164 13.0 19.1 0.00 0.00 0.05 96 1003.0
20260507115512 53 159 8.7 15.6 0.00 0.00 0.05 96 1003.0
20260507115012 53 165 11.3 21.7 0.00 0.00 0.05 96 1002.0
20260507114512 53 171 9.6 20.9 0.00 0.00 0.05 97 1002.0
20260507114012 53 154 8.7 18.2 0.00 0.00 0.05 97 1002.0
20260507113512 53 166 9.6 16.5 0.00 0.00 0.05 97 1002.0
20260507113012 53 154 13.9 19.1 0.00 0.00 0.05 97 1002.0
20260507112512 53 140 8.7 18.2 0.00 0.00 0.05 97 1003.0
20260507112011 53 163 5.2 12.2 0.00 0.00 0.05 97 1003.0
20260507111512 52 161 11.3 12.2 0.00 0.00 0.05 96 1003.0
20260507111011 53 187 7.0 12.2 0.02 0.00 0.05 95 1003.0
20260507110511 53 194 7.8 10.4 0.02 0.00 0.05 94 1003.0
20260507110011 53 160 6.1 13.0 0.00 0.00 0.04 93 1003.0
20260507105513 54 168 2.6 13.0 0.00 0.00 0.04 94 1003.0
20260507105011 54 206 4.3 19.1 0.00 0.00 0.04 94 1003.0
20260507104511 54 185 7.0 19.1 0.00 0.00 0.04 94 1003.0
20260507104011 54 163 12.2 20.9 0.00 0.00 0.04 95 1003.0
20260507103511 54 131 13.0 20.9 0.00 0.00 0.04 95 1003.0
20260507103011 53 156 12.2 20.0 0.02 0.00 0.04 95 1002.0
20260507102511 53 153 14.8 20.9 0.02 0.00 0.04 95 1002.0
20260507102012 53 165 6.1 26.1 0.00 0.00 0.04 95 1003.0
20260507101511 53 154 10.4 21.7 0.00 0.00 0.04 95 1002.0
20260507101015 53 142 14.8 22.6 0.00 0.00 0.04 96 1002.0